Warroad, MN

3:09 AM CDT on September 26, 2017 (GMT -0500)
Warroad International-Carlson

Weather History for KRRT - December, 2012

Change the Weather History Date:

Saturday, December 15, 2012

  Actual Average Record
Temperature  
Mean Temperature 22 °F -  
Max Temperature 28 °F 20 °F 42 °F (1997)
Min Temperature 15 °F 1 °F -29 °F (1975)
Degree Days  
Heating Degree Days 44    
Moisture  
Dew Point 18 °F    
Average Humidity 85    
Maximum Humidity 93    
Minimum Humidity 79    
Precipitation  
Precipitation 0.00 in - - ()
Sea Level Pressure  
Sea Level Pressure 29.68 in    
Wind  
Wind Speed 5 mph (NW)    
Max Wind Speed 15 mph    
Max Gust Speed 21 mph    
Visibility 5 miles    
Events      
Averages and records for this station are not official NWS values.
T = Trace of Precipitation, MM = Missing Value Source: NWS Daily Summary

Daily Weather History Graph

Daily Weather History Graph

Search for Another Location

Airport or City:

Trip Planner

Search our weather history database for the weather conditions in past years. The results will help you decide how hot, cold, wet, or windy it might be!

Date:

Astronomy

Dec. 15, 2012 Rise Set
Actual Time 8:09 AM CST 4:24 PM CST
Civil Twilight 7:31 AM CST 5:01 PM CST
Nautical Twilight 6:51 AM CST 5:42 PM CST
Astronomical Twilight 6:12 AM CST 6:21 PM CST
Moon 9:52 AM CST (12/15) 7:41 PM CST (12/15)
Length of Visible Light 9h 30m
Length of Day
8h 15m
Waxing Crescent, 8% of the Moon is Illuminated
Dec 15
Waxing Crescent
Dec 19
First Quarter
Dec 28
Full
Jan 4
Last Quarter
Jan 11
New

Hourly Weather History & Observations

Time (CST) Temp. Windchill Dew Point Humidity Pressure Visibility Wind Dir Wind Speed Gust Speed Precip Events Conditions
12:14 AM 24.8 °F 16.1 °F 19.4 °F 80% 29.77 in 10.0 mi SSE 8.1 mph - N/A   Clear
12:34 AM 23.0 °F 13.9 °F 19.4 °F 86% 29.78 in 7.0 mi SSE 8.1 mph - N/A   Clear
12:54 AM 23.0 °F 13.9 °F 19.4 °F 86% 29.77 in 7.0 mi SE 8.1 mph - N/A   Clear
1:14 AM 23.0 °F 13.1 °F 19.4 °F 86% 29.76 in 7.0 mi SE 9.2 mph - N/A   Clear
1:34 AM 21.2 °F 12.6 °F 17.6 °F 86% 29.76 in 7.0 mi SE 6.9 mph - N/A   Clear
1:54 AM 21.2 °F 13.6 °F 17.6 °F 86% 29.75 in 7.0 mi SE 5.8 mph - N/A   Clear
2:14 AM 21.2 °F 12.6 °F 17.6 °F 86% 29.75 in 7.0 mi SSE 6.9 mph - N/A   Clear
2:34 AM 19.4 °F 14.3 °F 15.8 °F 86% 29.75 in 5.0 mi ENE 3.5 mph - N/A   Clear
2:55 AM 19.4 °F 11.5 °F 15.8 °F 86% 29.75 in 5.0 mi East 5.8 mph - N/A   Clear
3:14 AM 19.4 °F 11.5 °F 15.8 °F 86% 29.74 in 7.0 mi East 5.8 mph - N/A   Clear
3:34 AM 19.4 °F 11.5 °F 15.8 °F 86% 29.73 in 7.0 mi East 5.8 mph - N/A   Clear
3:55 AM 19.4 °F 11.5 °F 15.8 °F 86% 29.73 in 5.0 mi East 5.8 mph - N/A   Clear
4:14 AM 19.4 °F 12.8 °F 15.8 °F 86% 29.73 in 5.0 mi East 4.6 mph - N/A   Clear
4:34 AM 19.4 °F 12.8 °F 15.8 °F 86% 29.73 in 5.0 mi East 4.6 mph - N/A   Clear
4:54 AM 19.4 °F - 15.8 °F 86% 29.73 in 5.0 mi Calm Calm - N/A   Clear
5:14 AM 17.6 °F 12.3 °F 15.8 °F 93% 29.73 in 4.0 mi ENE 3.5 mph - N/A   Clear
5:34 AM 17.6 °F 12.3 °F 14.0 °F 86% 29.73 in 4.0 mi ENE 3.5 mph - N/A   Clear
5:54 AM 17.6 °F 12.3 °F 12.2 °F 79% 29.73 in 4.0 mi East 3.5 mph - N/A   Clear
6:14 AM 17.6 °F 12.3 °F 12.2 °F 79% 29.72 in 5.0 mi East 3.5 mph - N/A   Clear
6:34 AM 17.6 °F - 12.2 °F 79% 29.72 in 4.0 mi Calm Calm - N/A   Clear
6:54 AM 17.6 °F - 12.2 °F 79% 29.72 in 4.0 mi Calm Calm - N/A   Clear
7:14 AM 17.6 °F - 14.0 °F 86% 29.72 in 5.0 mi Calm Calm - N/A   Clear
7:34 AM 17.6 °F - 14.0 °F 86% 29.71 in 5.0 mi Calm Calm - N/A   Clear
7:54 AM 15.8 °F - 12.2 °F 86% 29.71 in 5.0 mi Calm Calm - N/A   Clear
8:14 AM 15.8 °F - 12.2 °F 86% 29.70 in 5.0 mi Calm Calm - N/A   Clear
8:34 AM 15.8 °F - 12.2 °F 86% 29.70 in 5.0 mi Calm Calm - N/A   Clear
8:54 AM 15.8 °F - 12.2 °F 86% 29.69 in 5.0 mi Calm Calm - N/A   Clear
9:14 AM 17.6 °F - 15.8 °F 93% 29.68 in 5.0 mi Calm Calm - N/A   Clear
9:34 AM 19.4 °F - 15.8 °F 86% 29.67 in 5.0 mi Calm Calm - N/A   Clear
9:54 AM 19.4 °F - 17.6 °F 93% 29.67 in 5.0 mi Calm Calm - N/A   Clear
10:14 AM 21.2 °F - 17.6 °F 86% 29.68 in 5.0 mi Calm Calm - N/A   Clear
10:34 AM 21.2 °F - 17.6 °F 86% 29.68 in 5.0 mi Calm Calm - N/A   Clear
10:54 AM 23.0 °F - 19.4 °F 86% 29.68 in 5.0 mi Calm Calm - N/A   Clear
11:14 AM 24.8 °F - 19.4 °F 80% 29.67 in 5.0 mi Calm Calm - N/A   Clear
11:34 AM 24.8 °F - 19.4 °F 80% 29.67 in 5.0 mi Calm Calm - N/A   Clear
11:54 AM 24.8 °F - 21.2 °F 86% 29.66 in 5.0 mi Calm Calm - N/A   Clear
12:14 PM 24.8 °F - 21.2 °F 86% 29.66 in 5.0 mi Calm Calm - N/A   Clear
12:34 PM 24.8 °F - 21.2 °F 86% 29.65 in 5.0 mi Calm Calm - N/A   Clear
12:54 PM 24.8 °F - 21.2 °F 86% 29.65 in 5.0 mi Calm Calm - N/A   Clear
1:14 PM 26.6 °F - 21.2 °F 80% 29.64 in 5.0 mi Calm Calm - N/A   Clear
1:34 PM 26.6 °F - 21.2 °F 80% 29.64 in 5.0 mi Calm Calm - N/A   Clear
1:55 PM 26.6 °F - 23.0 °F 86% 29.63 in 5.0 mi Calm Calm - N/A   Clear
2:14 PM 26.6 °F 21.2 °F 23.0 °F 86% 29.62 in 5.0 mi WNW 4.6 mph - N/A   Clear
2:34 PM 28.4 °F 22.2 °F 24.8 °F 86% 29.62 in 7.0 mi WNW 5.8 mph - N/A   Clear
2:54 PM 28.4 °F 23.3 °F 24.8 °F 86% 29.62 in 7.0 mi NW 4.6 mph - N/A   Clear
3:14 PM 28.4 °F 24.6 °F 24.8 °F 86% 29.62 in 7.0 mi NW 3.5 mph - N/A   Clear
3:34 PM 28.4 °F - 24.8 °F 86% 29.62 in 7.0 mi Calm Calm - N/A   Clear
3:54 PM 26.6 °F 22.6 °F 24.8 °F 93% 29.62 in 7.0 mi NW 3.5 mph - N/A   Clear
4:14 PM 26.6 °F 22.6 °F 23.0 °F 86% 29.62 in 7.0 mi WNW 3.5 mph - N/A   Clear
4:34 PM 26.6 °F - 23.0 °F 86% 29.62 in 7.0 mi Calm Calm - N/A   Clear
4:54 PM 26.6 °F - 23.0 °F 86% 29.63 in 7.0 mi Calm Calm - N/A   Clear
5:14 PM 26.6 °F 22.6 °F 23.0 °F 86% 29.63 in 7.0 mi WNW 3.5 mph - N/A   Mostly Cloudy
5:34 PM 26.6 °F 21.2 °F 23.0 °F 86% 29.63 in 7.0 mi WNW 4.6 mph - N/A   Overcast
5:54 PM 26.6 °F 22.6 °F 23.0 °F 86% 29.64 in 7.0 mi WNW 3.5 mph - N/A   Overcast
6:14 PM 26.6 °F 21.2 °F 21.2 °F 80% 29.65 in 7.0 mi WNW 4.6 mph - N/A   Overcast
6:34 PM 26.6 °F 19.1 °F 21.2 °F 80% 29.65 in 5.0 mi WNW 6.9 mph - N/A   Overcast
6:54 PM 24.8 °F 16.9 °F 21.2 °F 86% 29.65 in 5.0 mi NW 6.9 mph - N/A   Overcast
7:14 PM 24.8 °F 16.9 °F 19.4 °F 80% 29.65 in 4.0 mi NW 6.9 mph - N/A   Overcast
7:34 PM 23.0 °F 14.7 °F 19.4 °F 86% 29.65 in 4.0 mi WNW 6.9 mph - N/A   Overcast
7:54 PM 21.2 °F 10.9 °F 17.6 °F 86% 29.65 in 3.0 mi WNW 9.2 mph - N/A   Overcast
8:14 PM 19.4 °F 7.9 °F 15.8 °F 86% 29.65 in 3.0 mi WNW 10.4 mph - N/A   Overcast
8:34 PM 17.6 °F 5.0 °F 15.8 °F 93% 29.66 in 4.0 mi WNW 11.5 mph - N/A   Overcast
8:54 PM 17.6 °F 5.0 °F 14.0 °F 86% 29.66 in 3.0 mi WNW 11.5 mph 16.1 mph N/A   Overcast
9:14 PM 17.6 °F 3.2 °F 12.2 °F 79% 29.67 in 2.5 mi WNW 15.0 mph 18.4 mph N/A   Overcast
9:34 PM 15.8 °F 3.4 °F 12.2 °F 86% 29.67 in 3.0 mi NW 10.4 mph 19.6 mph N/A   Overcast
9:54 PM 15.8 °F 2.7 °F 12.2 °F 86% 29.67 in 4.0 mi NW 11.5 mph 20.7 mph N/A   Overcast
10:14 PM 15.8 °F 1.4 °F 12.2 °F 86% 29.67 in 4.0 mi NW 13.8 mph - N/A   Overcast
10:34 PM 15.8 °F 2.1 °F 12.2 °F 86% 29.68 in 4.0 mi NW 12.7 mph 18.4 mph N/A   Overcast
10:54 PM 15.8 °F 2.7 °F 12.2 °F 86% 29.67 in 5.0 mi NW 11.5 mph - N/A   Overcast
11:14 PM 15.8 °F 2.7 °F 12.2 °F 86% 29.68 in 4.0 mi WNW 11.5 mph - N/A   Overcast
11:34 PM 15.8 °F 3.4 °F 12.2 °F 86% 29.68 in 5.0 mi NW 10.4 mph - N/A   Overcast
11:54 PM 15.8 °F 4.2 °F 10.4 °F 79% 29.68 in 5.0 mi WNW 9.2 mph - N/A   Overcast